Find Starlink 3850

NORAD ID: 52342 Int'l Des: 2022-045 Owner: SPXS Country: US Constellation: starlink operational
LEOCIRCULAR

当前视图

正在加载3D地球...

About Starlink 3850

Starlink 3850 (NORAD 52342) is a starlink constellation satellite (v1.5) launched Apr 29, 2022 by SPXS of US. It operates in LEO, CIRCULAR orbit with a mass of 297.00 kg.

即将过境

Passes for default location (London). Set your location on the main map for personalized predictions.

高度历史

Loading altitude history...

两行轨道根数

1 52342U 22045M 26262.74419604 .00001267 00000-0 48632-4 0 9995
2 52342 53.1605 39.0377 0001166 86.2619 273.8517 15.34388545245193
Epoch: Sep 19, 2026 • Age: 6 hours

当前状态

高度 463.0 km
远地点 / 近地点 N/A
速度 7.64 km/s
星下点 22.45°N, 53.26°E
发射日期 Apr 29, 2022
运行时间 4.3 years
类型 internet

技术详情

分类 Payload
质量 297.00 kg
干质量 275.00 kg
长度 0.20 m
跨度 9.00 m
形状 ? Box + pan
制造商 SPXS
平台类型 Starlink
阶段状态 In Orbit
所有者/国家 SPXS/US

Most Searched